Longue-Pointe-de-Mingan, Quebec

6:55 PM EDT on March 26, 2017 (GMT -0400)
Longue-Pointe-de-Mingan

Weather History for CWBT - March, 2012

Change the Weather History Date:

Wednesday, March 7, 2012

  Actual Average (CYGV) Record (CYGV)
Temperature  
Mean Temperature 10 °F -  
Max Temperature 27 °F 21 °F 33 °F (2013)
Min Temperature -6 °F 3 °F -20 °F (2003)
Degree Days  
Heating Degree Days 54    
Moisture  
Dew Point 12 °F    
Average Humidity 83    
Maximum Humidity 92    
Minimum Humidity 64    
Precipitation  
Precipitation 0.00 in - - ()
Sea Level Pressure  
Sea Level Pressure 30.26 in    
Wind  
Wind Speed 3 mph ()    
Max Wind Speed 7 mph    
Max Gust Speed -    
Averages and records for this station are not official NWS values.
T = Trace of Precipitation, MM = Missing Value Source: Averaged Metar Reports

Daily Weather History Graph

Daily Weather History Graph

Search for Another Location

Airport or City:

Trip Planner

Search our weather history database for the weather conditions in past years. The results will help you decide how hot, cold, wet, or windy it might be!

Date:

Astronomy

Mar. 07, 2012 Rise Set
Actual Time 5:46 AM EST 5:09 PM EST
Civil Twilight 5:14 AM EST 5:42 PM EST
Nautical Twilight 4:36 AM EST 6:19 PM EST
Astronomical Twilight 3:58 AM EST 6:58 PM EST
Moon 4:43 PM EST (3/7) 4:56 AM EST (3/7)
Length of Visible Light 12h 27m
Length of Day
11h 22m
Waxing Gibbous, 99% of the Moon is Illuminated
Mar 7
Waxing Gibbous
Mar 8
Full
Mar 14
Last Quarter
Mar 22
New
Mar 30
First Quarter

Hourly Weather History & Observations

Time (EST) Temp. Windchill Dew Point Humidity Pressure Visibility Wind Dir Wind Speed Gust Speed Precip Events Conditions
1:00 AM 3 °F - 1 °F 86% 30.42 in - NW 4.6 mph - -  
1:00 AM 2.7 °F -6.8 °F 0.9 °F 92% 30.42 in - NW 4.6 mph - N/A   Unknown
2:00 AM 1.9 °F -5.6 °F -0.0 °F 91% 30.42 in - NNW 3.5 mph - N/A   Unknown
3:00 AM 0.7 °F - -1.7 °F 90% 30.42 in - North 2.3 mph - N/A   Unknown
4:00 AM -4.0 °F - -6.9 °F 87% 30.43 in - NNW 1.2 mph - N/A   Unknown
5:00 AM -4.9 °F - -7.2 °F 90% 30.42 in - NNW 2.3 mph - N/A   Unknown
6:00 AM -4.7 °F -13.2 °F -7.1 °F 90% 30.44 in - North 3.5 mph - N/A   Unknown
7:00 AM 5 °F - 1 °F 77% 30.41 in - North 2.3 mph - -  
8:00 AM 13.5 °F - 7.7 °F 78% 30.40 in - NNW 2.3 mph - N/A   Unknown
9:00 AM 19.2 °F - 10.4 °F 69% 30.39 in - NNW 1.2 mph - N/A   Unknown
10:00 AM 19.2 °F - 12.0 °F 74% 30.37 in - SSE 2.3 mph - N/A   Unknown
11:00 AM 23.2 °F - 16.2 °F 75% 30.34 in - South 2.3 mph - N/A   Unknown
12:00 PM 27.0 °F - 18.9 °F 72% 30.30 in - SW 2.3 mph - N/A   Unknown
1:00 PM 26 °F - 19 °F 64% 30.26 in - SE 3.5 mph - -  
1:00 PM 25.5 °F 21.3 °F 18.7 °F 75% 30.26 in - SE 3.5 mph - N/A   Unknown
2:00 PM 25.9 °F 21.7 °F 20.1 °F 79% 30.22 in - ESE 3.5 mph - N/A   Unknown
3:00 PM 25.2 °F 19.5 °F 20.5 °F 82% 30.18 in - East 4.6 mph - N/A   Unknown
4:00 PM 25.3 °F 18.5 °F 20.5 °F 82% 30.16 in - SSE 5.8 mph - N/A   Unknown
5:00 PM 24.6 °F 18.8 °F 20.8 °F 86% 30.12 in - SE 4.6 mph - N/A   Unknown
6:00 PM 24.8 °F 16.9 °F 21.6 °F 87% 30.10 in - SE 6.9 mph - N/A   Unknown
7:00 PM 26 °F - 23 °F 84% 30.06 in - SE 5.8 mph - -  
7:00 PM 25.5 °F 18.7 °F 23.2 °F 91% 30.06 in - SE 5.8 mph - N/A   Unknown
8:00 PM 26.2 °F 22.1 °F 23.9 °F 91% 30.03 in - SSE 3.5 mph - N/A   Unknown
9:00 PM 26.2 °F 22.1 °F 24.1 °F 92% 29.99 in - SE 3.5 mph - N/A   Unknown
11:00 PM 26.4 °F 22.4 °F 24.4 °F 92% 29.90 in - SE 3.5 mph - N/A   Unknown